Location: Ravensburg
(47.7866°N, 9.6124°E)
Time: 09:56:26
(UTC+02:00)

YUBILEINY - Pass Details

Date: 15 March 2026
Orbit: 1477 x 1509 km, 82.5° (Epoch: 17 April)

Event Time Altitude Azimuth Distance (km) Brightness Sun altitude
Rises 05:52:24 0° 341° (NNW) 4,621 ? -8.0°
Reaches altitude 10° 05:56:26 10° 324° (NW) 3,632 ? -7.3°
Maximum altitude 06:01:40 18° 287° (WNW) 3,041 ? -6.4°
Drops below altitude 10° 06:06:54 10° 249° (WSW) 3,613 ? -5.5°
Sets 06:10:56 0° 231° (SW) 4,587 ? -4.9°
